Location: Graswijk
(52.9667°N, 6.5500°E)
Time: 20:55:30
(UTC+00:00)

Cosmos 2058 Rocket - Pass Details

Date: 15 May 2026
Orbit: 604 x 632 km, 82.5° (Epoch: 8 June)

Event Time Altitude Azimuth Distance (km) Brightness Sun altitude
Exits shadow 22:30:59 24° 208° (SSW) 1,286 4.3 -16.9°
Maximum altitude 22:33:32 63° 284° (WNW) 683 3.3 -16.9°
Drops below altitude 10° 22:37:51 10° 6° (N) 1,966 6.8 -17.1°
Sets 22:40:06 0° 9° (N) 2,874 7.8 -17.2°
